Погода в Печоре

Погода в Печоре : погода сейчас, прогноз погоды и архив. Всё, что Вы хотите узнать о погоде в Печоре!

Хотите узнать прогноз погоды в Печоре? Тогда Вам сюда: Погода в Печоре

Поиск расширенной информации на нашем сайте:

Другие новости

Новости СМИ2

Главная страница сайта

Новости сайта

02.10.2013

Напоминаем, что на нашем новом сайте вы можете получить высокодетализированные прогнозы погоды по пунктам России, СНГ и мира (включающие важные для авиации метеовеличины, такие как направление и скорость ветра, видимость, явления погоды, количество и форма облачности, нижняя и верхняя граница облачности), а также ознакомиться с разнообразными материалами по авиационной метеорологии и подборкой полезных ссылок на эту тему.

Сайт Метеоцентр.Азия посвящён разработке технологий оптимизации авиаметеорологического обслуживания, включая проектирование и перспективное создание нескольких автоматизированных авиаметеорологических систем:
- система выпуска высокодетальных прогностических карт явлений погоды для нижнего воздушного пространства по России и ближнему зарубежью;
- система верификации прогнозов TAF (выпускаемых синоптиками официальных АМСГ РФ и ближнего зарубежья) и AUTOTAF (выпускаемых сайтом Метеоцентр.Азия) - выявление ошибок, онлайн-сопоставление с фактической погодой METAR, автоматическое внесение коррективов в прогнозы при резком отклонении фактической погоды от прогноза, подсчёт оправдываемости прогнозов по элементам и в целом;
- система обработки, анализа и отображения авиаметеорологической информации для применения провайдерами метеорологической информации.

Рекомендуем: Подробное описание наружная реклама у нас.

Погода в Печоре - сегодня

Время (UTC), дата Ветер
(°,м/с) 
Видим.   Явления Облачность Т
(°С)
Тd
(°С)
f(%) Тe
(°С)
Pmin
(гПа)
dP
(гПа)
Po
(мм)
O2
(г/м3)
Тmin Tmax R s Состояние
почвы
12 15.01.17 180 (Ю) 4-10{10}  2200 м  снег [диам. гололёда 5 мм]  10/0 средняя 
[As op]
-3.7 -5.2 89 -7  1017.2  0.5  757  310           
15 15.01.17 190 (Ю) 4{10}  3900 м  снег [диам. гололёда 5 мм]  10/0 средняя 
[As op]
-4.1 -6.4 84 -7  1017.6  0.4  758  311    -3.7     
18 15.01.17 180 (Ю) 4600 м  слаб. снег  10/6 570 м средняя 
[Sc|As op]
-4.2 -6.5 84 -7  1018.1  0.5  758  311           
21 15.01.17 170 (Ю) 3300 м  снег  10/8 330 м средняя 
[Frnb|As op]
-4.4 -6.7 84 -8  1018.7  0.6  758  311           
00 16.01.17 160 (Ю) 9000 м  слаб. снег  10/8 400 м средняя 
[Frnb|As op]
-4.8 -7.2 83 -8  1019.1  0.4  759  312           
03 16.01.17 180 (Ю) 9000 м  снежные зёрна  10/10 420 м 
[St]
-4.3 -6.6 84 -7  1019.7  0.6  759  311  -4.9    53  неравномерный
сухой снег
100% 
06 16.01.17 190 (Ю) 2700 м  снег  10/10 360 м 
[Frnb|Ns]
-5.3 -7.4 85 -9  1019.9  0.2  759  313  -5.4         
09 16.01.17 190 (Ю) 15000 м  {снег}  9/9 630 м 
[Sc]
-5.4 -7.9 83 -9  1020.9  760  313           
12 16.01.17 190 (Ю) 4500 м  слаб. снег  10/8 360 м средняя 
[Frnb|As op]
-5.7 -7.9 84 -8  1021.8  0.9  761  314           
15 16.01.17 180 (Ю) 3100 м  снег  10/8 400 м средняя 
[Frnb|As op]
-5.9 -8.2 84 -8  1022.7  0.9  761  314    -4.2     
18 16.01.17 190 (Ю) 3400 м  снег  10/6 480 м средняя 
[Sc|As op]
-7.1 -9.6 82 -11  1023.3  0.6  762  316           
21 16.01.17 170 (Ю) 4000 м  снег  10/8 500 м средняя 
[Sc|As op]
-10 -12.2 84 -14  1024.9  1.4  763  320           
00 17.01.17 170 (Ю) 3100 м  снег  10/8 500 м средняя 
[Sc|As op]
-11.2 -13.2 85 -15  1026.2  1.3  764  322           
03 17.01.17 160 (Ю) 3800 м  снег  10/10 420 м 
[Frnb|Ns]
-11.5 -13.5 85 -15  1026.7  0.5  764  323  -11.6    57  неравномерный
сухой снег
100% 
06 17.01.17 160 (Ю) 15000 м  в посл. час снег  10/10 360 м 
[St]
-11.5 -14.3 80 -16  1027.8  1.1  765  323  -11.7         
09 17.01.17 160 (Ю) 10 км  слаб. снег  10/10 360 м 
[Frnb|Ns]
-10.6 -13.4 80 -15  1028.1  0.3  765  322           
12 17.01.17 150 (ЮВ) 7000 м  слаб. снег  10/10 360 м 
[Frnb|Ns]
-9.9 -12 85 -13  1028.8  0.7  766  321           
15 17.01.17 160 (Ю) 6000 м  слаб. снег  10/6 450 м средняя 
[Sc|As op]
-9.3 -11.3 85 -13  1028.8  766  321    -9.1     
18 17.01.17 160 (Ю) 2300 м  снег  10/6 360 м средняя 
[Frnb|As op]
-8.6 -10.5 86 -11  1028.2  -0.6  765  319           
21 17.01.17 160 (Ю) 6000 м  слаб. снег  10/8 300 м средняя 
[Frnb|As op]
-8.6 -10.5 86 -11  1027.2  -1  765  319           
00 18.01.17 170 (Ю) 9000 м  слаб. снег  10/8 240 м средняя 
[Frnb|As op]
-7.9 -10.1 84 -11  1026  -1.2  764  318           
03 18.01.17 150 (ЮВ) 3100 м  снег  10/8 360 м средняя 
[Frnb|As op]
-8.5 -10.4 86 -11  1024.1  -1.9  762  318  -9.3    59  неравномерный
сухой снег
100% 
06 18.01.17 180 (Ю) 15000 м  в посл. час снег  10/8 360 м средняя 
[Frnb|As op]
-8.6 -11 83 -12  1022.6  -1.4  761  318           
09 18.01.17 170 (Ю) 15000 м  в посл. час снег  6/0 верхняя 
[Ci fib]
-10.4 -12.4 85 -14  1020.5  -2.1  760  319           
12 18.01.17 170 (Ю) 15000 м  {снег}  10/6 400 м средняя 
[St|Ac und]
-12 -14.7 80 -15  1019.8  -0.7  759  321           
Время (UTC), дата Ветер
(°,м/с) 
Видим.   Явления Облачность Т
(°С)
Тd
(°С)
f(%) Тe
(°С)
Pmin
(гПа)
dP
(гПа)
Po
(мм)
O2
(г/м3)
Тmin Tmax R s Состояние
почвы

Для получения пояснительной информации подведите курсор к названию столбца.

ПОГОДА в Печоре - архив

Всё, что Вы хотите узнать о погоде в Печоре - удобно и подробно!

Выберите нужную дату (начиная с 1 января 2015* года) и нажмите кнопку "Найти".
Будут отображены архивные сводки погоды по пункту Печора, начиная с указанной даты.


Отображать данные в формате CSV (для использования в таблицах Excel)


Внимание! Наш архив погоды предназначен исключительно для личного некоммерческого использования в познавательных целях. Если Вам необходимы официальные справки о состоянии погоды (для производственных, юридических, коммерческих и т.п. целей), обращайтесь в органы Росгидромета.

*Примечание: данная дата относится к архиву по метеостанциям СССР (Россия, СНГ, Балтия).
Архив по метеостанциям Зарубежной Европы и Азии (кроме Китая) хранится 10 дней, по другим регионам земного шара (Китай, Африка, Америка, Австралия, Океания) - 1 день.

Печора - район местоположения метеостанции


Название, широта, долгота, высота метеостанции:
Печора 65.1°ш. 57.1°д. 59 м над ур. моря [Российская Федерация]

Дополнительная информация

В oтличие oт бoльшинства пoгoдных сайтoв мы публикуем пoдрoбную метеoинфoрмацию в детальнoм прoфессиoнальнoм фoрмате.

Характеристики температуры и влажнoсти вoздуха измеряются на высoте 2 м в тени вдали oт зданий и деревьев.
Скoрoсть ветра измеряется на высoте 10 м (на урoвне рoста челoвека скoрoсть ветра ниже в 1.5-2 раза). Если метеoстанция нахoдится в гoрoде или в лесу, тo скoрoсть ветра занижена на 2-4 м/с пo сравнению с oткрытым местoм. Скoрoсть ветра над акватoриями крупных рек и oзёр, а также на вершинах хoлмoв на 2-5 м/с выше, чем в oбычных услoвиях.
Атмoсфернoе давление в разных тoчках местнoсти мoжет значительнo oтличаться oт давления на метеoстанции, в зависимoсти oт услoвий рельефа (при пoдъёме на 10 м давление пoнижается примернo на 1 мм рт.ст.).